Weather History for Port Angeles, WA

Change the Weather History Date:

Wednesday, July 17, 2013

  Actual Average Record
Temperature  
Mean Temperature 64 °F -  
Max Temperature 72 °F 70 °F 87 °F (1979)
Min Temperature 57 °F 52 °F 45 °F (1962)
Degree Days  
Heating Degree Days 1    
Growing Degree Days 14 (Base 50)    
Moisture  
Dew Point 54 °F    
Average Humidity 70    
Maximum Humidity 81    
Minimum Humidity 51    
Precipitation  
Precipitation 0.00 in - - ()
Sea Level Pressure  
Sea Level Pressure 30.09 in    
Wind  
Wind Speed 10 mph (WNW)    
Max Wind Speed 18 mph    
Max Gust Speed 25 mph    
Visibility 10 miles    
Events      
Averages and records for this station are not official NWS values.
T = Trace of Precipitation, MM = Missing Value Source: NWS Daily Summary

Daily Weather History Graph

Daily Weather History Graph

Search for Another Location

Airport:

Trip Planner

Search our weather history database for the weather conditions in past years. The results will help you decide how hot, cold, wet, or windy it might be!

Date:

Astronomy

Jul. 17, 2013 Rise Set
Actual Time 5:32 AM PDT 9:07 PM PDT
Civil Twilight 4:53 AM PDT 9:46 PM PDT
Nautical Twilight 4:00 AM PDT 10:38 PM PDT
Astronomical Twilight 2:48 AM PDT 11:49 PM PDT
Moon 3:57 PM PDT (7/17) 12:51 AM PDT (7/17)
Length of Visible Light 16h 53m
Length of Day
15h 35m
Waxing Gibbous, 68% of the Moon is Illuminated
Jul 17
Waxing Gibbous
Jul 22
Full
Jul 29
Last Quarter
Aug 6
New
Aug 14
First Quarter

Hourly Weather History & Observations

Time (PDT) Temp. Dew Point Humidity Pressure Visibility Wind Dir Wind Speed Gust Speed Precip Events Conditions
12:53 AM 71.1 °F 53.1 °F 53% 29.90 in 10.0 mi NW 5.8 mph - N/A   Mostly Cloudy
1:53 AM 71.1 °F 52.0 °F 51% 29.90 in 10.0 mi West 8.1 mph - N/A   Scattered Clouds
2:53 AM 66.9 °F 53.1 °F 61% 29.90 in 10.0 mi West 10.4 mph - N/A   Clear
3:53 AM 64.9 °F 55.0 °F 70% 29.95 in 10.0 mi North 8.1 mph - N/A   Clear
4:53 AM 60.1 °F 53.1 °F 78% 29.98 in 10.0 mi WNW 4.6 mph - N/A   Clear
5:53 AM 60.1 °F 53.1 °F 78% 29.99 in 10.0 mi West 9.2 mph - N/A   Clear
6:53 AM 61.0 °F 53.1 °F 75% 30.01 in 10.0 mi WNW 10.4 mph - N/A   Clear
7:53 AM 64.0 °F 55.0 °F 73% 30.04 in 10.0 mi WNW 10.4 mph - N/A   Clear
8:53 AM 64.9 °F 55.0 °F 70% 30.06 in 10.0 mi NW 9.2 mph - N/A   Clear
9:53 AM 66.0 °F 55.0 °F 68% 30.09 in 10.0 mi NW 8.1 mph - N/A   Partly Cloudy
10:53 AM 66.0 °F 55.0 °F 68% 30.10 in 10.0 mi NW 10.4 mph - N/A   Clear
11:53 AM 66.0 °F 55.0 °F 68% 30.11 in 10.0 mi NNW 11.5 mph - N/A   Clear
12:53 PM 66.9 °F 55.0 °F 66% 30.14 in 10.0 mi NW 10.4 mph 18.4 mph N/A   Clear
1:53 PM 66.9 °F 55.0 °F 66% 30.15 in 10.0 mi NW 11.5 mph 21.9 mph N/A   Partly Cloudy
2:53 PM 66.0 °F 55.0 °F 68% 30.16 in 10.0 mi NW 17.3 mph 21.9 mph N/A   Clear
3:53 PM 66.9 °F 55.0 °F 66% 30.16 in 10.0 mi NW 16.1 mph 21.9 mph N/A   Clear
4:53 PM 64.9 °F 54.0 °F 68% 30.17 in 10.0 mi NW 18.4 mph 25.3 mph N/A   Clear
5:53 PM 64.0 °F 53.1 °F 67% 30.17 in 10.0 mi NW 12.7 mph 21.9 mph N/A   Partly Cloudy
6:53 PM 63.0 °F 53.1 °F 70% 30.17 in 10.0 mi WNW 16.1 mph 21.9 mph N/A   Scattered Clouds
7:53 PM 61.0 °F 53.1 °F 75% 30.18 in 10.0 mi West 12.7 mph - N/A   Clear
8:53 PM 57.9 °F 52.0 °F 81% 30.19 in 10.0 mi West 12.7 mph - N/A   Clear
9:53 PM 57.9 °F 52.0 °F 81% 30.20 in 10.0 mi West 12.7 mph - N/A   Mostly Cloudy
10:53 PM 57.9 °F 52.0 °F 81% 30.20 in 10.0 mi WNW 10.4 mph - N/A   Overcast
11:53 PM 57.9 °F 52.0 °F 81% 30.21 in 10.0 mi West 9.2 mph - N/A   Overcast